Flag for Switzerland Weather past 2 weeks in Thusis, Graubünden, Switzerland

Now
39 °F

Chilly.


Feels Like: 32 °F
Forecast: 28 / 36 °F
Wind: 13 mph from Northeast

Location: Chur-Ems

Current Time: Oct 22, 2014 at 3:54:12 PM

Latest Report: Oct 22, 2014 at 3:00 PM


Visibility: N/A

Pressure: 30.19 "Hg

Humidity: 82%

Dew point: 34 °F

Location of ThusisLocation

Historic Weather in Thusis — Graph

°F

Thusis temperature yesterday

Maximum temperature yesterday: 65 °F (at 4:00 PM)
Minimum temperature yesterday: 44 °F (at 11:00 PM)
Average temperature yesterday: 57 °F

Past Weeks' High & Low Weather Summary

 TemperatureHumidityPressure
High77 °F (Oct 9, 3:00 PM)96% (Oct 13, 9:00 PM)30.30 "Hg (Oct 13, 9:00 PM)
Low40 °F (Oct 22, 10:00 AM)30% (Oct 9, 3:00 PM)29.72 "Hg (Oct 21, 9:00 PM)
Average59 °F72%29.98 "Hg
* Reported Oct 7 2:00 PM — Oct 22 2:00 PM, Thusis, Weather by CustomWeather, © 2014

Note: Actual official high and low records may vary slightly from our data, if they occured in-between our weather recording intervals... More about our weather records

Advertising

Thusis weather history for previous 24 hours

 ConditionsComfort  
Time TempWeatherWind HumidityBarometerVisibility
2:00 PM
Oct 22
41 °FOvercast.8 mph69%30.17 "Hg11 mi
1:00 PM42 °FQuite cool.5 mph66%30.16 "HgN/A
12:00 PM42 °FQuite cool.12 mph66%30.16 "HgN/A
11:00 AM40 °FFog.14 mph78%30.16 "Hg2 mi
10:40 AM40 °FFog.12 mph78%30.16 "Hg2 mi
10:00 AM40 °FChilly.15 mph79%30.16 "HgN/A
9:00 AM41 °FQuite cool.17 mph74%30.10 "HgN/A
8:00 AM42 °FFog.16 mph67%30.07 "Hg2 mi
7:00 AM41 °FQuite cool.22 mph81%30.03 "HgN/A
6:00 AM42 °FQuite cool.8 mph85%30.00 "HgN/A
5:00 AM42 °FHeavy rain. Overcast.16 mph83%30.02 "Hg4 mi
4:00 AM42 °FQuite cool.6 mph85%30.03 "HgN/A
3:00 AM43 °FQuite cool.10 mph82%30.06 "HgN/A
2:00 AM43 °FRain. Overcast.8 mph88%30.09 "Hg4 mi
1:00 AM44 °FQuite cool.12 mph79%30.10 "HgN/A
12:00 AM45 °FQuite cool.15 mph77%30.08 "HgN/A
11:00 PM
Oct 21
44 °FQuite cool.18 mph84%30.04 "HgN/A
10:00 PM46 °FCool.37 mph86%29.87 "HgN/A
9:00 PM55 °FCool.2 mph93%29.72 "HgN/A
8:00 PM55 °FPassing clouds.1 mph89%29.73 "Hg9 mi
7:00 PM57 °FCool.1 mph85%29.76 "HgN/A
6:00 PM60 °FCool.3 mph75%29.78 "HgN/A
5:00 PM62 °FPartly sunny.8 mph68%29.80 "Hg9 mi
4:00 PM65 °FMild.5 mph63%29.80 "HgN/A
3:00 PM64 °FMild.2 mph72%29.85 "HgN/A
Weather by CustomWeather, © 2014

See weather overviewHow to use our weather pages